Location: Argonnex
(45.9500°N, 6.1333°E)
Time: 13:08:58
(UTC+00:00)

Cosmos 2266 Rocket - Pass Details

Date: 08 August 2024
Orbit: 933 x 1007 km, 82.9° (Epoch: 14 September)

Event Time Altitude Azimuth Distance (km) Brightness Sun altitude
Rises 23:30:50 0° 6° (N) 3,603 8.2 -28.2°
Reaches altitude 10° 23:35:08 10° 35° (NE) 2,652 6.9 -28.3°
Maximum altitude 23:37:34 12° 59° (ENE) 2,475 6.4 -28.3°
Drops below altitude 10° 23:40:00 10° 83° (E) 2,650 6.3 -28.3°
Enters shadow 23:41:56 - 99° (E) 3,007 6.5 -28.3°
